Flag for Norway Weather past 2 weeks in Jørpeland, Norway

Now
61 °F

Light rain. Partly sunny.


Feels Like: 61 °F
Forecast: 54 / 62 °F
Wind: 6 mph from Southeast

Location: Stavanger / Sola

Current Time: Aug 30, 2014 at 1:09:10 PM

Latest Report: Aug 30, 2014 at 12:20 PM


Visibility: N/A

Pressure: 29.74 "Hg

Humidity: 77%

Dew point: 54 °F

Location of JørpelandLocation

Historic Weather in Jørpeland — Graph

°F

Jørpeland temperature yesterday

Maximum temperature yesterday: 66 °F (at 3:20 PM)
Minimum temperature yesterday: 54 °F (at 1:20 AM)
Average temperature yesterday: 61 °F

Past Weeks' High & Low Weather Summary

 TemperatureHumidityPressure
High66 °F (Aug 29, 3:20 PM)100% (Aug 18, 12:20 AM)29.98 "Hg (Aug 18, 12:20 AM)
Low48 °F (Aug 22, 5:50 AM)55% (Aug 15, 5:50 PM)29.21 "Hg (Aug 18, 9:20 AM)
Average57 °F80%29.67 "Hg
* Reported Aug 15 11:50 AM — Aug 30 11:50 AM, Jørpeland, Weather by CustomWeather, © 2014

Note: Actual official high and low records may vary slightly from our data, if they occured in-between our weather recording intervals... More about our weather records

Advertising

Jørpeland weather history for previous 24 hours

 ConditionsComfort  
Time TempWeatherWind HumidityBarometerVisibility
11:50 AM
Aug 30
63 °FLight rain. Broken clouds.14 mph68%29.74 "HgN/A
11:20 AM63 °FPartly sunny.12 mph68%29.74 "HgN/A
10:50 AM63 °FBroken clouds.12 mph68%29.74 "HgN/A
10:20 AM63 °FPartly sunny.9 mph68%29.74 "HgN/A
9:50 AM63 °FPartly sunny.13 mph68%29.74 "HgN/A
9:20 AM61 °FPartly sunny.12 mph72%29.74 "HgN/A
8:50 AM61 °FBroken clouds.12 mph68%29.74 "HgN/A
8:20 AM61 °FBroken clouds.9 mph68%29.74 "HgN/A
7:50 AM59 °FBroken clouds.7 mph72%29.74 "HgN/A
7:20 AM59 °FPassing clouds.7 mph72%29.74 "HgN/A
6:50 AM59 °FPassing clouds.9 mph72%29.77 "HgN/A
6:20 AM59 °FPartly cloudy.8 mph72%29.77 "HgN/A
5:50 AM59 °FPartly cloudy.7 mph77%29.77 "HgN/A
4:50 AM59 °FPartly cloudy.9 mph77%29.77 "HgN/A
3:50 AM59 °FPassing clouds.7 mph77%29.77 "HgN/A
2:50 AM59 °FPartly cloudy.12 mph77%29.77 "HgN/A
1:50 AM59 °FPartly cloudy.7 mph77%29.80 "HgN/A
12:50 AM61 °FPartly cloudy.8 mph72%29.80 "HgN/A
12:20 AM61 °FPassing clouds.9 mph72%29.80 "HgN/A
11:50 PM
Aug 29
59 °FPassing clouds.9 mph77%29.80 "HgN/A
11:20 PM59 °FPassing clouds.8 mph77%29.80 "HgN/A
10:50 PM59 °FPassing clouds.5 mph77%29.80 "HgN/A
8:50 PM57 °FBroken clouds.7 mph88%29.80 "HgN/A
8:20 PM57 °FScattered showers. Broken clouds.9 mph88%29.80 "HgN/A
7:50 PM57 °FLight rain. Partly sunny.9 mph88%29.80 "HgN/A
7:20 PM59 °FRain. Broken clouds.10 mph82%29.80 "HgN/A
6:50 PM59 °FLight rain. Partly sunny.9 mph88%29.83 "HgN/A
6:20 PM63 °FLight rain. Partly sunny.12 mph68%29.80 "HgN/A
5:50 PM64 °FScattered showers. Broken clouds.13 mph60%29.80 "HgN/A
5:20 PM66 °FScattered showers. Broken clouds.20 mph56%29.80 "HgN/A
4:50 PM66 °FBroken clouds.18 mph56%29.77 "HgN/A
4:20 PM66 °FBroken clouds.18 mph60%29.77 "HgN/A
3:50 PM64 °FBroken clouds.15 mph64%29.80 "HgN/A
3:20 PM66 °FScattered showers. Broken clouds.22 mph60%29.80 "HgN/A
2:50 PM63 °FLight rain. Broken clouds.12 mph73%29.80 "HgN/A
2:20 PM64 °FLight rain. Partly sunny.16 mph60%29.80 "HgN/A
1:50 PM64 °FBroken clouds.20 mph60%29.80 "HgN/A
1:20 PM64 °FPartly sunny.21 mph64%29.80 "HgN/A
Weather by CustomWeather, © 2014

See weather overviewHow to use our weather pages